Location: Unspecified
(0.0000°N, 0.0000°E)
Time: 03:28:51
(UTC+02:00)

Tiros 1 despin weight - Visible Passes

Search period start: 28 July 2015 00:00
Search period end: 07 August 2015 00:00
Orbit: 597 x 647 km, 48.2° (Epoch: 27 July)

Date Brightness Start Highest point End Pass type
(mag) Time Alt. Az. Time Alt. Az. Time Alt. Az.
29 Jul ? 06:45:15 10° N 06:48:52 23° NE 06:52:34 10° ESE visible
29 Jul ? 20:36:26 10° W 20:39:19 16° NW 20:42:03 10° N visible
30 Jul ? 07:02:08 10° NNW 07:06:46 62° NE 07:11:21 10° SE visible
31 Jul ? 05:40:35 10° NNE 05:42:56 14° NE 05:45:31 10° E visible
31 Jul ? 07:20:07 10° NW 07:24:36 45° SW 07:29:02 10° SSE visible
01 Aug ? 05:59:53 32° NNE 06:00:55 37° NE 06:05:15 10° ESE visible
01 Aug ? 07:39:24 10° W 07:42:32 17° SW 07:45:28 10° S visible
02 Aug ? 06:20:04 47° SSE 06:20:04 47° SSE 06:23:25 10° SE visible
03 Aug ? 06:39:27 16° S 06:39:27 16° S 06:40:34 10° S visible
